Observations for Trim Market St
| Time | AQI | Temp °C | Hum % | Pres Pa | CO μg/m³ | H₂S μg/m³ | NO μg/m³ | NO₂ μg/m³ | O₃ μg/m³ | SO₂ μg/m³ | PM1 μg/m³ | PM2.5 μg/m³ | PM10 μg/m³ |
|---|---|---|---|---|---|---|---|---|---|---|---|---|---|
| Sunday 23 August 2026 | |||||||||||||
| 02:13 | 2 | 14.3 | 67 | 57,186 | 0.29 | 0 | 1.95 | 8.57 | 52.63 | 0 | 2.14 | 4.68 | 6.88 |
| 02:12 | 2 | 14.3 | 67 | 57,195 | 0.3 | 0 | 1.9 | 11.15 | 50.62 | 0 | 1.43 | 3.7 | 5.59 |
| 02:11 | 2 | 14.3 | 67 | 57,204 | 0.31 | 0 | 1.92 | 10.46 | 50.17 | 0 | 1.43 | 4.2 | 6.24 |
| 02:08 | 2 | 14.4 | 66 | 57,216 | 0.27 | 0 | 1.63 | 7.72 | 56.25 | 0 | 1.43 | 3.22 | 4.94 |
| 02:07 | 2 | 14.4 | 66 | 57,220 | 0.28 | 0 | 1.78 | 7.91 | 56.37 | 0 | 2.14 | 3.71 | 6.23 |
| 02:06 | 2 | 14.4 | 66 | 57,227 | 0.29 | 0 | 1.9 | 7.73 | 56.62 | 0 | 2.14 | 3.22 | 8.18 |
| 02:05 | 2 | 14.4 | 66 | 57,227 | 0.3 | 0 | 2.48 | 8.07 | 54.72 | 0 | 2.85 | 4.7 | 6.88 |
| 02:04 | 2 | 14.4 | 66 | 57,232 | 0.3 | 0 | 2.88 | 9.67 | 51.98 | 0 | 2.85 | 4.7 | 8.18 |
| 02:03 | 2 | 14.4 | 66 | 57,238 | 0.29 | 0 | 2.68 | 12.93 | 48.92 | 0 | 2.14 | 5.19 | 9.47 |
| 02:02 | 2 | 14.5 | 66 | 57,243 | 0.32 | 0 | 2.61 | 24.33 | 32.49 | 0 | 2.85 | 4.7 | 6.88 |
| 02:01 | 2 | 14.5 | 66 | 57,248 | 0.31 | 0 | 2.3 | 8.39 | 54 | 0 | 2.14 | 3.72 | 5.58 |
| 01:59 | 2 | 14.5 | 66 | 57,262 | 0.28 | 0 | 1.89 | 8.2 | 54.33 | 0 | 2.14 | 5.69 | 8.18 |
| 01:57 | 2 | 14.5 | 66 | 57,275 | 0.28 | 0 | 1.94 | 8.59 | 53.71 | 0 | 1.43 | 3.23 | 4.93 |
| 01:54 | 2 | 14.6 | 66 | 57,294 | 0.27 | 0 | 1.95 | 7.9 | 55.79 | 0 | 1.43 | 3.73 | 6.88 |
| 01:53 | 2 | 14.6 | 66 | 57,298 | 0.28 | 0 | 1.84 | 8.25 | 54.14 | 0 | 1.43 | 6.19 | 9.48 |
| 01:45 | 2 | 14.7 | 66 | 57,341 | 0.27 | 0 | 1.82 | 7.6 | 56.48 | 0 | 1.43 | 3.74 | 5.57 |
| 01:42 | 2 | 14.8 | 66 | 57,355 | 0.27 | 0 | 2.55 | 8.07 | 54.95 | 0 | 2.14 | 3.75 | 5.57 |
| 01:39 | 2 | 14.8 | 66 | 57,358 | 0.34 | 0 | 2.53 | 19.56 | 41.2 | 0 | 1.43 | 3.75 | 5.57 |
| 01:38 | 2 | 14.9 | 66 | 57,364 | 0.28 | 0 | 2.55 | 25.23 | 32.65 | 0 | 0.71 | 3.27 | 4.92 |
| 01:37 | 2 | 14.9 | 66 | 57,367 | 0.27 | 0 | 2.08 | 9.5 | 53.05 | 0 | 1.43 | 3.27 | 6.88 |